Tracking 26951 objects as of 3-Feb-2023
HD Live streaming from Space Station
objects crossing your sky now

LACUNASAT-2B

Track LACUNASAT-2B now!
10-day predictions


NORAD ID: 47948
Int'l Code: 2021-022S
Perigee: 513.0 km
Apogee: 541.0 km
Inclination: 97.5 °
Period: 95.0 minutes
Semi major axis: 6898 km
RCS: Unknown
Launch date: March 22, 2021
Source: United Kingdom (UK)
Launch site: TYURATAM MISSILE AND SPACE COMPLEX (TTMTR)
Your satellite tracking list
Your tracking list is empty




NASA's NSSDC Master Catalog

Two Line Element Set (TLE):
1 47948U 21022S   23034.52079578  .00017091  00000-0  90370-3 0  9994
2 47948  97.5203 296.4950 0020292  69.8888 290.4525 15.15358383102829
Source of the keplerian elements: AFSPC